Stefansson Island,

9:31 AM MDT on October 19, 2017 (GMT -0600)
Stefansson Island

Weather History for CXSE - September, 2013

Change the Weather History Date:

Thursday, September 5, 2013

  Actual Average Record
Temperature  
Mean Temperature 25 °F -  
Max Temperature 29 °F - - ()
Min Temperature 21 °F - - ()
Degree Days  
Heating Degree Days 40    
Moisture  
Dew Point 26 °F    
Average Humidity 91    
Maximum Humidity 96    
Minimum Humidity 84    
Precipitation  
Precipitation 0.00 in - - ()
Sea Level Pressure  
Sea Level Pressure 29.68 in    
Wind  
Wind Speed 5 mph ()    
Max Wind Speed 10 mph    
Max Gust Speed -    
T = Trace of Precipitation, MM = Missing Value Source: Averaged Metar Reports

Daily Weather History Graph

Daily Weather History Graph

Search for Another Location

Airport or City:

Trip Planner

Search our weather history database for the weather conditions in past years. The results will help you decide how hot, cold, wet, or windy it might be!

Date:

Astronomy

Sep. 05, 2013 Rise Set
Actual Time 5:11 AM MDT 8:43 PM MDT
Civil Twilight 3:35 AM MDT 10:17 PM MDT
Nautical Twilight Sun does not rise Sun does not rise
Astronomical Twilight Sun does not rise Sun does not rise
Moon 6:19 AM MDT (9/5) 7:21 PM MDT (9/5)
Length of Visible Light 18h 42m
Length of Day
15h 31m
New Moon, 0% of the Moon is Illuminated
Sep 5
New Moon
Sep 12
First Quarter
Sep 19
Full
Sep 26
Last Quarter
Oct 4
New

Hourly Weather History & Observations

Time (MDT) Temp. Windchill Dew Point Humidity Pressure Visibility Wind Dir Wind Speed Gust Speed Precip Events Conditions
12:00 AM 27.3 °F 20.9 °F 25.2 °F 92% 29.66 in - WSW 5.8 mph - N/A   Unknown
1:00 AM 27.9 °F - 25.5 °F 91% 29.65 in - Calm Calm - N/A   Unknown
2:00 AM 26.6 °F 21.2 °F 25.3 °F 95% 29.65 in - East 4.6 mph - N/A   Unknown
3:00 AM 27.1 °F - 25.5 °F 94% 29.65 in - East 2.3 mph - N/A   Unknown
4:00 AM 28.6 °F 24.8 °F 25.0 °F 86% 29.65 in - SSE 3.5 mph - N/A   Unknown
5:00 AM 27.7 °F 22.4 °F 26.1 °F 94% 29.65 in - East 4.6 mph - N/A   Unknown
6:00 AM 28 °F - 26 °F 90% 29.64 in - East 6.9 mph - -  
6:00 AM 27.9 °F 20.6 °F 26.2 °F 94% 29.64 in - East 6.9 mph - N/A   Unknown
7:00 AM 28.2 °F 22.0 °F 26.1 °F 92% 29.65 in - ESE 5.8 mph - N/A   Unknown
8:00 AM 28.6 °F 23.5 °F 26.2 °F 91% 29.64 in - East 4.6 mph - N/A   Unknown
9:00 AM 28.9 °F 21.1 °F 26.8 °F 92% 29.64 in - ESE 8.1 mph - N/A   Unknown
10:00 AM 28.8 °F 21.7 °F 26.1 °F 90% 29.64 in - East 6.9 mph - N/A   Unknown
11:00 AM 28.9 °F 21.1 °F 26.2 °F 90% 29.64 in - East 8.1 mph - N/A   Unknown
12:00 PM 29 °F - 26 °F 85% 29.65 in - East 5.8 mph - -  
12:00 PM 28.8 °F 22.6 °F 26.2 °F 90% 29.65 in - East 5.8 mph - N/A   Unknown
1:00 PM 28.8 °F 20.9 °F 26.1 °F 90% 29.66 in - East 8.1 mph - N/A   Unknown
2:00 PM 28.9 °F 21.9 °F 26.2 °F 90% 29.67 in - ENE 6.9 mph - N/A   Unknown
3:00 PM 28.6 °F 20.7 °F 26.6 °F 92% 29.68 in - ENE 8.1 mph - N/A   Unknown
4:00 PM 28.0 °F 20.0 °F 26.4 °F 94% 29.69 in - NE 8.1 mph - N/A   Unknown
5:00 PM 27.3 °F 17.7 °F 25.5 °F 93% 29.70 in - NNE 10.4 mph - N/A   Unknown
6:00 PM 28 °F - 25 °F 84% 29.71 in - North 8.1 mph - -  
6:00 PM 27.5 °F 19.3 °F 25.0 °F 90% 29.71 in - North 8.1 mph - N/A   Unknown
7:00 PM 27.0 °F 17.3 °F 25.0 °F 92% 29.73 in - North 10.4 mph - N/A   Unknown
8:00 PM 26.8 °F 19.3 °F 25.0 °F 93% 29.73 in - NNW 6.9 mph - N/A   Unknown
9:00 PM 27.0 °F 19.5 °F 26.1 °F 96% 29.74 in - NNW 6.9 mph - N/A   Unknown
10:00 PM 26.6 °F 16.8 °F 24.1 °F 90% 29.76 in - North 10.4 mph - N/A   Unknown
11:00 PM 26.6 °F 19.1 °F 23.9 °F 90% 29.77 in - NNW 6.9 mph - N/A   Unknown